DW2822 Weather Reports


Display with metric or nautical units.
time (UTC)temp
F
wind
direction
speed
MPH
gust
MPH
rain 1hr
in
rain 24hr
in
rain mn
in
humidity
%
barometer
mb
20260510174623 52 27 5.0 11.0 0.00 0.00 0.00 61 1014.6
20260510173050 52 65 6.0 17.0 0.00 0.00 0.00 60 1014.7
20260510171558 52 359 6.0 11.0 0.00 0.00 0.00 61 1014.8
20260510170028 52 16 8.0 13.0 0.00 0.00 0.00 61 1014.9
20260510164521 52 31 8.0 16.0 0.00 0.00 0.00 62 1015.1
20260510163111 52 344 10.0 15.0 0.00 0.00 0.00 63 1015.2
20260510161501 52 65 9.0 16.0 0.00 0.00 0.00 63 1015.3
20260510160044 52 46 9.0 17.0 0.00 0.00 0.00 63 1015.5
20260510154544 52 1 5.0 12.0 0.00 0.00 0.00 65 1015.5
20260510153040 52 18 9.0 18.0 0.00 0.00 0.00 65 1015.7
20260510151537 52 26 5.0 15.0 0.00 0.00 0.00 66 1015.9
20260510150006 52 58 8.0 14.0 0.00 0.00 0.00 68 1016.1
20260510144511 51 359 7.0 15.0 0.00 0.00 0.00 68 1016.3
20260510143013 51 39 13.0 19.0 0.00 0.00 0.00 68 1016.4
20260510141520 51 59 10.0 17.0 0.00 0.00 0.00 70 1016.6
20260510140050 51 50 6.0 12.0 0.00 0.00 0.00 72 1016.7
20260510134551 50 5 8.0 17.0 0.00 0.00 0.00 71 1016.8
20260510133042 50 32 6.0 14.0 0.00 0.00 0.00 73 1016.8
20260510131552 50 22 7.0 14.0 0.00 0.00 0.00 74 1017.0
20260510130031 49 21 7.0 14.0 0.00 0.00 0.00 75 1017.0
20260510124529 49 72 7.0 14.0 0.00 0.00 0.00 75 1017.1
20260510123021 49 46 7.0 18.0 0.00 0.00 0.00 76 1017.3
20260510121520 49 56 8.0 15.0 0.00 0.00 0.00 76 1017.3
20260510120046 48 34 11.0 18.0 0.00 0.00 0.00 77 1017.6
20260510114551 48 20 8.0 15.0 0.00 0.00 0.00 78 1017.8
20260510113044 48 359 8.0 15.0 0.00 0.00 0.00 78 1017.8
20260510111540 47 359 9.0 20.0 0.00 0.00 0.00 78 1018.0
20260510110019 47 20 10.0 14.0 0.00 0.00 0.00 79 1018.0
20260510104513 47 69 9.0 17.0 0.00 0.00 0.00 79 1018.2
20260510103016 47 66 11.0 17.0 0.00 0.00 0.00 79 1018.3
20260510101524 47 48 9.0 20.0 0.00 0.00 0.00 79 1018.3
20260510100109 47 42 9.0 19.0 0.00 0.00 0.00 80 1018.4
20260510094555 47 25 10.0 15.0 0.00 0.00 0.00 80 1018.4
20260510093048 47 325 9.0 19.0 0.00 0.00 0.00 81 1018.5
20260510091547 46 11 10.0 15.0 0.00 0.00 0.00 81 1018.5
20260510090016 46 22 7.0 17.0 0.00 0.00 0.00 81 1018.5
20260510084522 46 355 10.0 20.0 0.00 0.00 0.00 81 1018.6
20260510083017 46 38 10.0 15.0 0.00 0.00 0.00 81 1018.6
20260510081507 46 6 9.0 17.0 0.00 0.00 0.00 81 1018.7
20260510080055 46 28 9.0 18.0 0.00 0.00 0.00 81 1018.7
20260510074540 46 1 9.0 14.0 0.00 0.00 0.00 81 1018.7
20260510073041 46 25 6.0 18.0 0.00 0.00 0.00 81 1018.5
20260510071546 46 35 9.0 17.0 0.00 0.00 0.00 81 1018.5
20260510070035 47 24 7.0 16.0 0.00 0.00 0.00 81 1018.5
20260510064520 47 26 9.0 15.0 0.00 0.00 0.00 81 1018.4
20260510063018 47 13 7.0 16.0 0.00 0.00 0.00 81 1018.3
20260510061520 47 38 9.0 15.0 0.00 0.00 0.00 81 1018.3
20260510060053 47 30 10.0 19.0 0.00 0.00 0.00 81 1018.2
20260510054552 47 52 8.0 15.0 0.00 0.00 0.00 80 1018.1
20260510053052 47 1 8.0 18.0 0.00 0.00 0.00 80 1018.1
20260510051544 47 360 8.0 19.0 0.00 0.00 0.00 80 1018.2
20260510050018 47 11 7.0 21.0 0.00 0.00 0.00 80 1018.3
20260510044512 47 359 7.0 15.0 0.00 0.00 0.00 80 1018.2
20260510043008 47 351 9.0 16.0 0.00 0.00 0.00 80 1018.3
20260510041505 47 3 9.0 17.0 0.00 0.00 0.00 80 1018.5
20260510040045 48 1 9.0 15.0 0.00 0.00 0.00 80 1018.6
20260510034544 48 360 9.0 15.0 0.00 0.00 0.00 80 1018.5
20260510033044 48 33 11.0 18.0 0.00 0.00 0.00 80 1018.6
20260510031531 48 32 9.0 17.0 0.00 0.00 0.00 79 1018.6
20260510024600 48 14 7.0 17.0 0.00 0.00 0.00 79 1018.7
20260510023054 48 3 5.0 16.0 0.00 0.00 0.00 79 1018.7
20260510021651 48 36 8.0 19.0 0.00 0.00 0.00 79 1018.7
20260510020036 48 26 11.0 19.0 0.00 0.00 0.00 79 1018.6
20260510014545 49 22 10.0 17.0 0.00 0.00 0.00 79 1018.6
20260510013025 49 45 11.0 19.0 0.00 0.00 0.00 78 1018.8
20260510011518 49 29 12.0 22.0 0.00 0.00 0.00 77 1018.9
20260510010055 50 18 10.0 16.0 0.00 0.00 0.00 76 1019.0
20260510004547 50 349 8.0 15.0 0.00 0.00 0.00 75 1018.9
20260510003028 50 24 7.0 15.0 0.00 0.00 0.00 75 1018.9
20260510001534 51 28 9.0 21.0 0.00 0.00 0.00 74 1018.8
20260510000059 51 20 10.0 19.0 0.00 0.00 0.00 74 1018.7
20260509234501 51 356 10.0 19.0 0.00 0.00 0.00 74 1018.8
20260509233053 52 6 13.0 20.0 0.00 0.00 0.00 74 1018.5
20260509231601 52 359 11.0 20.0 0.00 0.00 0.00 73 1018.6
20260509230029 53 28 9.0 18.0 0.00 0.00 0.00 72 1018.6
20260509224521 53 13 10.0 19.0 0.00 0.00 0.00 72 1018.4
20260509223014 54 9 9.0 17.0 0.00 0.00 0.00 71 1018.4
20260509221516 55 324 8.0 18.0 0.00 0.00 0.00 70 1018.3
20260509220055 55 1 10.0 17.0 0.00 0.00 0.00 70 1018.3
20260509214556 56 11 9.0 16.0 0.00 0.00 0.00 69 1018.2
20260509213103 56 359 9.0 16.0 0.00 0.00 0.00 69 1018.1
20260509211552 57 7 8.0 17.0 0.00 0.00 0.00 68 1017.9
20260509210015 58 359 8.0 18.0 0.00 0.00 0.00 67 1017.7
20260509204505 58 3 8.0 21.0 0.00 0.00 0.00 67 1017.7
20260509203101 59 30 10.0 17.0 0.00 0.00 0.00 66 1017.6
20260509201606 60 344 8.0 15.0 0.00 0.00 0.00 65 1017.6
20260509200027 61 297 6.0 13.0 0.00 0.00 0.00 63 1017.3
20260509194537 61 309 6.0 19.0 0.00 0.01 0.00 63 1017.2
20260509193022 61 313 7.0 15.0 0.00 0.01 0.00 62 1016.9
20260509191522 61 358 7.0 14.0 0.00 0.01 0.00 61 1016.9
20260509190057 61 310 5.0 12.0 0.00 0.01 0.00 59 1016.8
20260509184606 61 347 3.0 6.0 0.00 0.08 0.00 57 1016.6
20260509183054 61 8 4.0 7.0 0.00 0.08 0.00 56 1016.5
20260509181552 62 352 3.0 7.0 0.00 0.08 0.00 56 1016.4
20260509180048 62 27 4.0 12.0 0.00 0.08 0.00 56 1016.4